Regional Weather Roundup
Issued by NWS

Home | Current Version | Previous Version | Text Only | Print | Product List | Glossary Off
Versions: 1 2 3 4 5 6 7 8 9 10 11 12 13 14 15 16 17 18 19 20 21 22 23 24 25 26 27 28 29 30 31 32 33 34 35 36 37 38 39 40 41 42 43 44 45 46 47 48 49 50

080
ASUS45 KABQ 061010
RWRNM
NEW MEXICO REGIONAL WEATHER ROUNDUP
NATIONAL WEATHER SERVICE ALBUQUERQUE NM
300 AM MST SAT FEB 06 2016

NOTE: "FAIR" MEANS FEW OR NO CLOUDS BELOW 12,000 FEET AGL WITH NO
       SIGNIFICANT WEATHER OR OBSTRUCTIONS TO VISION.

      THIS PRODUCT IS RELEASED AS TWO VERSIONS.  ONE VERSION NEAR
      THE TOP OF THE HOUR CONTAINING PRELIMINARY DATA FROM ALBUQUERQUE
      AND OTHER STATIONS.  A FINAL VERSION WITH ADDITIONAL DATA IS
      ISSUED ABOUT 10 MINUTES AFTER THE HOUR.

NMZ501-503-504-510>518-061100-
NORTHWEST PLATEAU/NORTHCENTRAL MOUNTAINS

CITY           SKY/WX    TMP DP  RH WIND       PRES   REMARKS
FARMINGTON     CLOUDY    13   9  84 N3        30.49R
LOS ALAMOS     CLOUDY    21   6  52 CALM      30.40S
SANTA FE       CLOUDY    17  10  74 N7        30.40F WCI   8
TAOS           CLOUDY     0  -6  78 N6        30.40F WCI -12
ANGEL FIRE     FAIR     -14 -17  83 CALM      30.37F

$$
NMZ402-403-502-505>509-061100-
WESTCENTRAL MOUNTAINS/SOUTHWEST MOUNTAINS

CITY           SKY/WX    TMP DP  RH WIND       PRES   REMARKS
GALLUP         CLEAR     12   7  80 CALM      30.49R
GRANTS         CLEAR     11   5  77 N9        30.49S WCI  -2
SILVER CITY      N/A     19   7  58 N10       30.47S WCI   8

$$
NMZ407-409-411-412-061100-
SOUTHERN DESERTS

CITY           SKY/WX    TMP DP  RH WIND       PRES   REMARKS
LORDSBURG      FAIR      30   7  37 S10       30.45S WCI  21
DEMING         CLEAR     21   4  47 NW7       30.46F WCI  12
LAS CRUCES     CLEAR     27   1  32 N7        30.45F WCI  20
HOLLOMAN AFB   CLOUDY    18  -1  44 NW5       30.43S WCI  11
ALAMOGORDO     CLOUDY    23   3  42 CALM      30.44R
T OR C         CLEAR     27   4  37 NW7       30.44S WCI  19

$$
NMZ519>523-061100-
CENTRAL VALLEYS/CENTRAL HIGHLANDS

CITY           SKY/WX    TMP DP  RH WIND       PRES   REMARKS
ALBUQUERQUE    CLOUDY    26  12  55 NE8       30.46F WCI  18
DOUBLE EAGLE   CLOUDY    19  10  70 N5        30.45S WCI  12
MORIARTY ARPT  FAIR      15   8  75 CALM      30.41S
CLINES CORNERS CLOUDY    17   8  67 NW17      30.33R WCI   1
BELEN          FAIR      19   9  65 N6        30.47S WCI  11
SOCORRO        FAIR      25  10  53 N10       30.45F WCI  14

$$
NMZ524>526-539-540-061100-
SOUTHCENTRAL MOUNTAINS

CITY           SKY/WX    TMP DP  RH WIND       PRES   REMARKS
RUIDOSO          N/A     27   0  31 W5        30.39S WCI  21

$$
NMZ527>531-061100-
NORTHEAST HIGHLANDS/NORTHEAST PLAINS

CITY           SKY/WX    TMP DP  RH WIND       PRES   REMARKS
LAS VEGAS      CLOUDY    17   2  51 CALM      30.30F
RATON          CLOUDY     8   3  80 NE6       30.29F WCI  -2
CLAYTON        CLOUDY    19   8  62 W7        30.31F WCI  10

$$
NMZ532>537-061100-
EASTCENTRAL PLAINS

CITY           SKY/WX    TMP DP  RH WIND       PRES   REMARKS
TUCUMCARI      CLOUDY    20  12  71 SW3       30.35F
CANNON AFB     CLOUDY    21  14  74 NW8       30.36F WCI  12
CLOVIS AIRPORT CLOUDY    18  10  73 NW8       30.37F WCI   7

$$
NMZ028-029-538-061100-
SOUTHEAST PLAINS

CITY           SKY/WX    TMP DP  RH WIND       PRES   REMARKS
ROSWELL        CLOUDY    23  11  60 CALM      30.39F
ARTESIA        CLOUDY    27  10  50 W10       30.41F WCI  17
CARLSBAD       CLOUDY    25  13  60 NW5       30.42S WCI  19
HOBBS          CLEAR     23  18  80 W9        30.42S WCI  13


$$




USA.gov is the U.S. government's official web portal to all federal, state and local government web resources and services.